Regional Weather Roundup
Issued by NWS

Home | Current Version | Previous Version | Graphics & Text | Print | Product List | Glossary On
Versions: 1 2 3 4 5 6 7 8 9 10 11 12 13 14 15 16 17 18 19 20 21 22 23 24 25 26 27 28 29 30 31 32 33 34 35 36 37 38 39 40 41 42 43 44 45 46 47 48 49 50
000
ASUS43 KDTX 271710
RWRMI
MICHIGAN HOURLY REGIONAL WEATHER ROUNDUP
NATIONAL WEATHER SERVICE DETROIT/PONTIAC MI
100 PM EDT THU AUG 27 2015

NOTE: "FAIR" INDICATES FEW OR NO CLOUDS BELOW 12,000 FEET WITH NO
SIGNIFICANT WEATHER AND/OR OBSTRUCTION TO VISIBILITY.

MIZ047>049-052>055-059>063-066>070-074>076-081>083-271800-
SOUTHEAST LOWER MICHIGAN

CITY           SKY/WX    TMP DP  RH WIND       PRES   REMARKS
ADRIAN         CLOUDY    67  53  61 VRB3      30.21F
ALMA           SUNNY     66  53  61 CALM      30.19F
ANN ARBOR      CLOUDY    64  52  64 NW8       30.21F
BAD AXE        CLOUDY    61  52  72 N7        30.21F
CARO           CLOUDY    64  55  73 N7        30.20F
DETROIT CITY   CLOUDY    64  51  62 NW9       30.21F
DETROIT        CLOUDY    67  52  58 NW10      30.22F
FLINT          CLOUDY    64  52  64 NW5       30.22F
GROSSE ILE     CLOUDY    66  54  63 W13G21    30.20F
HILLSDALE      CLOUDY    64  55  72 CALM      30.21F
HOWELL         CLOUDY    63  51  65 CALM      30.21F

CITY           SKY/WX    TMP DP  RH WIND       PRES   REMARKS
JACKSON        CLOUDY    62  53  72 SW3       30.21F
LAMBERTVILLE   CLOUDY    68  55  61 N7        30.21F
LANSING        CLOUDY    64  51  62 CALM      30.22F
LAPEER         CLOUDY    62  53  72 NW6       30.22F
MASON          CLOUDY    62  51  67 CALM      30.21F
MONROE         CLOUDY    69  53  57 NW7G16    30.20F
MT. CLEMENS    CLOUDY    63  53  71 NW9       30.20F
PONTIAC        CLOUDY    62  52  69 NW8       30.22S
PORT HOPE        N/A     60  52  74 NW7       30.20S
PORT HURON     CLOUDY    63  54  72 NW7       30.21S
TRI CITIES     CLOUDY    66  54  65 NW6       30.21F
MIDLAND        CLOUDY    65  54  68 CALM      30.19F
TROY           CLOUDY    64  53  65 CALM      30.23S
SAGINAW HB     CLOUDY    66  55  68 NW3       30.19F
$$
MIZ043>046-050>051-056>058-064>065-071>073-077>080-271800-
SOUTHWEST LOWER MICHIGAN

CITY           SKY/WX    TMP DP  RH WIND       PRES   REMARKS
BATTLE CREEK   CLOUDY    65  53  65 E7        30.21F
BENTON HARBOR  MOSUNNY   68  55  63 VRB3      30.19F
BIG RAPIDS     CLOUDY    67  55  63 CALM      30.18S
COLDWATER      CLOUDY    63  53  70 CALM      30.21F
FREMONT        CLOUDY    67  55  64 SW6       30.18F
HOLLAND        PTSUNNY   71  54  54 SE5       30.20S
GRAND RAPIDS   MOSUNNY   69  54  58 E6        30.20S
IONIA          FAIR      67  53  61 E3G9      30.19S
KALAMAZOO      MOSUNNY   66  53  63 VRB5      30.21F
LUDINGTON      SUNNY     71  60  68 SW12      30.18F
MARSHALL       CLOUDY    63  54  72 E3        30.21F
MOUNT PLEASANT PTSUNNY   70  53  54 NW3       30.18F
MUSKEGON       MOSUNNY   70  54  56 SW8       30.19F
SOUTH HAVEN    SUNNY     68  54  60 S5        30.19F
$$
MIZ016>042-271800-
NORTHERN LOWER MICHIGAN

CITY           SKY/WX    TMP DP  RH WIND       PRES   REMARKS
ALPENA         CLOUDY    62  51  67 NW7       30.19F
BEAVER ISLAND  MOSUNNY   65  55  69 W5        30.18S
BELLAIRE       CLOUDY    68  56  65 SW5       30.17F
CADILLAC       PTSUNNY   68  56  66 S3        30.17F
CHARLEVOIX     MOSUNNY   65  56  72 N7        30.20F
FRANKFORT      SUNNY     68  59  74 SW10      30.17S
GAYLORD        CLOUDY    64  53  67 NW5       30.18F
GRAYLING       CLOUDY    64  53  67 CALM      30.19F
HARBOR SPRINGS PTSUNNY   63  54  71 SW5       30.18S
HOUGHTON LAKE  CLOUDY    64  54  69 W3        30.19F
MANISTEE       MOSUNNY   68  54  60 W14       30.18S
OSCODA         CLOUDY    62  52  69 NW5       30.19F
PELLSTON       CLOUDY    65  53  65 CALM      30.18F
ROGERS CITY    CLOUDY    61  52  72 N7        30.19F
TRAVERSE CITY  PTSUNNY   71  55  56 W5        30.15F
$$
MIZ007>008-015-271800-
EASTERN UPPER MICHIGAN

CITY           SKY/WX    TMP DP  RH WIND       PRES   REMARKS
KINROSS        CLOUDY    59  54  82 N5        30.18F
MACKINAC ISLAN MOSUNNY   61  48  62 NE3       30.17F
NEWBERRY       PTSUNNY   63  52  66 CALM      30.16F
S. S. MARIE    PTSUNNY   62  54  74 W6        30.16F
MUNISING         N/A     69  53  56 VRB5      30.14F
$$
MIZ004>006-011>014-085-271800-
CENTRAL UPPER MICHIGAN

CITY           SKY/WX    TMP DP  RH WIND       PRES   REMARKS
MANISTIQUE     SUNNY     64  54  70 S8        30.17S
ESCANABA       MOSUNNY   63  55  77 S7        30.15F
MENOMINEE      SUNNY     64  54  68 SE9       30.15F
SAWYER-GWINN   SUNNY     66  52  59 W3        30.14F
$$
MIZ001>003-009>011-084-271800-
WESTERN UPPER MICHIGAN

CITY           SKY/WX    TMP DP  RH WIND       PRES   REMARKS
IRON MOUNTAIN  MOSUNNY   62  54  74 S6        30.15F
HOUGHTON       SUNNY     64  49  57 SE6       30.11F
COPPER HARBOR    N/A     63  50  62 SW10      30.12S
IRONWOOD       SUNNY     70  50  49 SW7       30.09F
$$

ABBREVIATIONS USED IN REMARKS
   TC - TEMPERATURE IN CELSIUS
  WCI - WIND CHILL INDEX
   HX - HEAT INDEX
  VSB - VISIBILITY



USA.gov is the U.S. government's official web portal to all federal, state and local government web resources and services.